Philip, SD

10:56 PM MST on December 07, 2016 (GMT -0700)
Philip

Weather History for KPHP - September, 2012

Change the Weather History Date:

Thursday, September 13, 2012

  Actual Average Record
Temperature  
Mean Temperature 63 °F 64 °F  
Max Temperature 81 °F 79 °F 97 °F (1971)
Min Temperature 44 °F 48 °F 28 °F (1949)
Degree Days  
Heating Degree Days 2 4  
Month to date heating degree days 7 39  
Since 1 July heating degree days 12 64  
Cooling Degree Days 0 3  
Month to date cooling degree days 85 54  
Year to date cooling degree days 1196 789  
Growing Degree Days 13 (Base 50)    
Moisture  
Dew Point 35 °F    
Average Humidity 48    
Maximum Humidity 82    
Minimum Humidity 13    
Precipitation  
Precipitation 0.00 in 0.05 in 1.37 in (1966)
Month to date precipitation T 0.66  
Year to date precipitation 5.99 14.04  
Sea Level Pressure  
Sea Level Pressure 30.29 in    
Wind  
Wind Speed 7 mph (WNW)    
Max Wind Speed 18 mph    
Max Gust Speed 22 mph    
Visibility 10 miles    
Events      
T = Trace of Precipitation, MM = Missing Value Source: NWS Daily Summary

Daily Weather History Graph

Daily Weather History Graph

Search for Another Location

Airport or City:

Trip Planner

Search our weather history database for the weather conditions in past years. The results will help you decide how hot, cold, wet, or windy it might be!

Date:

Astronomy

Sep. 13, 2012 Rise Set
Actual Time 6:23 AM MDT 6:59 PM MDT
Civil Twilight 5:54 AM MDT 7:28 PM MDT
Nautical Twilight 5:20 AM MDT 8:02 PM MDT
Astronomical Twilight 4:44 AM MDT 8:38 PM MDT
Moon 3:41 AM MDT (9/13) 5:26 PM MDT (9/13)
Length of Visible Light 13h 33m
Length of Day
12h 35m
Waning Crescent, 7% of the Moon is Illuminated
Sep 13
Waning Crescent
Sep 15
New
Sep 22
First Quarter
Sep 29
Full
Oct 8
Last Quarter

Hourly Weather History & Observations

Time (MDT) Temp. Dew Point Humidity Pressure Visibility Wind Dir Wind Speed Gust Speed Precip Events Conditions
12:55 AM 50.0 °F 39.0 °F 66% 30.31 in 10.0 mi WSW 5.8 mph - N/A   Clear
1:55 AM 50.0 °F 39.9 °F 68% 30.31 in 10.0 mi West 3.5 mph - N/A   Clear
2:55 AM 48.0 °F 39.0 °F 71% 30.31 in 10.0 mi Calm Calm - N/A   Clear
3:55 AM 46.0 °F 37.9 °F 73% 30.31 in 10.0 mi Calm Calm - N/A   Clear
4:55 AM 46.0 °F 39.0 °F 76% 30.30 in 10.0 mi Calm Calm - N/A   Clear
5:55 AM 46.9 °F 41.0 °F 80% 30.32 in 10.0 mi NW 4.6 mph - N/A   Clear
6:55 AM 48.0 °F 42.1 °F 80% 30.34 in 10.0 mi WNW 4.6 mph - N/A   Clear
7:55 AM 52.0 °F 44.1 °F 74% 30.34 in 10.0 mi WSW 4.6 mph - N/A   Clear
8:55 AM 60.1 °F 46.9 °F 62% 30.34 in 10.0 mi WSW 10.4 mph - N/A   Clear
9:55 AM 66.0 °F 46.9 °F 50% 30.34 in 10.0 mi West 12.7 mph - N/A   Clear
10:55 AM 72.0 °F 43.0 °F 35% 30.32 in 10.0 mi West 9.2 mph - N/A   Clear
11:55 AM 73.9 °F 42.1 °F 32% 30.30 in 10.0 mi WNW 4.6 mph - N/A   Clear
12:55 PM 77.0 °F 39.9 °F 26% 30.28 in 10.0 mi West 9.2 mph - N/A   Partly Cloudy
1:55 PM 79.0 °F 30.9 °F 17% 30.26 in 10.0 mi NW 11.5 mph 21.9 mph N/A   Clear
2:55 PM 80.1 °F 27.0 °F 14% 30.25 in 10.0 mi NW 8.1 mph 19.6 mph N/A   Clear
3:55 PM 80.1 °F 25.0 °F 13% 30.24 in 10.0 mi WNW 9.2 mph - N/A   Clear
4:55 PM 80.1 °F 25.0 °F 13% 30.23 in 10.0 mi NW 9.2 mph 19.6 mph N/A   Clear
5:55 PM 79.0 °F 24.1 °F 13% 30.23 in 10.0 mi NW 5.8 mph - N/A   Clear
6:55 PM 71.1 °F 24.1 °F 17% 30.24 in 10.0 mi NW 4.6 mph - N/A   Clear
7:55 PM 64.0 °F 23.0 °F 21% 30.26 in 10.0 mi NW 6.9 mph - N/A   Clear
9:55 PM 51.1 °F 27.0 °F 39% 30.29 in 10.0 mi West 6.9 mph - N/A   Clear
10:55 PM 54.0 °F 24.1 °F 31% 30.30 in 10.0 mi West 8.1 mph - N/A   Clear
11:55 PM 53.1 °F 24.1 °F 32% 30.30 in 10.0 mi WNW 9.2 mph - N/A   Clear